GFSMA_850_dewp_162.txt.gz
Dewpoint
-18 -15 -13 -12 -13 -20 -21 -13 -12 -12 -12 -11 -11 -11 -13 -14 -13 -12 -13 -17 -15 -10 0 3 11 12 11 10 9 9 11 11 11 10 10 10 10 9 8 7 6 5 5
-14 -13 -13 -15 -23 -24 -11 -12 -9 -7 -7 -6 -6 -7 -7 -8 -9 -10 -10 -10 -14 -17 -13 -2 2 8 12 12 10 9 9 10 11 11 10 10 11 10 9 8 7 5 5
-14 -15 -18 -26 -29 -11 -14 -14 -10 -5 -4 -4 -3 -3 -3 -3 -4 -4 -5 -6 -6 -10 -15 -15 -6 2 5 10 12 10 9 10 11 11 11 11 11 11 10 9 9 7 6
-16 -19 -28 -30 -25 -12 -15 -15 -10 -5 -3 -2 -2 -1 -2 -2 -2 -2 -2 -1 -1 -1 -5 -12 -15 -8 1 4 10 12 10 9 10 11 12 11 11 11 11 10 10 9 7
-19 -27 -30 -31 -21 -17 -17 -11 -5 -4 -3 -2 -2 -2 -2 -1 -1 -1 0 1 2 1 0 -2 -9 -15 -8 3 6 13 12 10 10 11 12 12 11 11 11 10 10 10 10
-25 -30 -31 -29 -25 -19 -8 -5 -4 -4 -3 -2 -3 -2 -3 -1 -0 1 1 1 3 3 4 2 0 -3 -12 -3 6 12 12 11 8 10 11 11 10 11 10 10 9 9 9
-30 -31 -31 -29 -23 -8 -5 -5 -4 -3 -3 -3 -3 -3 -2 -1 1 0 -2 -0 2 3 3 4 3 0 -1 -3 6 7 12 12 11 11 11 11 10 11 8 8 9 9 11
-31 -32 -31 -29 -14 -6 -6 -6 -4 -4 -4 -4 -4 -3 -2 -2 0 -4 -1 -1 0 2 4 4 5 2 1 2 8 7 8 11 11 11 10 10 11 11 9 8 10 9 11
-32 -32 -30 -28 -17 -6 -8 -10 -5 -4 -4 -4 -5 -5 -3 -3 -4 -2 -2 -1 -1 1 3 4 4 3 1 3 8 8 8 8 11 11 11 11 11 10 8 9 10 11 11
-32 -32 -32 -31 -27 -16 -15 -11 -7 -8 -5 -5 -5 -5 -6 -5 -4 -3 -2 -2 -1 -1 2 3 4 5 6 6 6 8 9 9 9 11 11 11 10 10 8 10 9 10 11
-32 -33 -34 -34 -33 -26 -21 -14 -14 -12 -5 -5 -6 -6 -6 -6 -5 -4 -3 -2 -2 -1 1 2 3 4 5 6 7 8 9 9 8 9 10 11 11 9 9 9 11 10 10
-32 -34 -34 -34 -33 -29 -23 -20 -21 -12 -8 -6 -6 -6 -7 -7 -6 -6 -5 -4 -3 -2 -1 0 1 1 4 5 6 7 8 8 8 8 8 8 10 10 10 9 10 10 9
-32 -33 -34 -35 -35 -31 -28 -26 -20 -10 -11 -9 -6 -7 -8 -7 -7 -6 -5 -5 -3 -2 -1 0 1 1 1 3 5 6 7 7 7 7 8 8 8 9 10 9 9 9 9
-32 -34 -35 -36 -36 -34 -32 -29 -15 -16 -14 -11 -6 -7 -7 -7 -7 -7 -6 -5 -4 -2 -1 -0 0 1 1 1 3 4 7 7 6 6 5 6 9 9 8 8 7 8 9
-33 -34 -35 -36 -35 -35 -35 -33 -22 -28 -15 -11 -7 -6 -7 -7 -6 -6 -5 -5 -5 -4 -2 -1 -0 -0 0 1 2 0 4 5 7 8 8 8 8 9 10 9 4 7 8
-33 -34 -35 -35 -35 -35 -34 -33 -28 -31 -26 -12 -10 -6 -6 -7 -6 -5 -5 -5 -4 -4 -3 -2 -1 -1 -0 0 1 1 2 3 4 6 7 7 8 8 9 9 9 10 10
-33 -33 -35 -35 -35 -34 -34 -33 -33 -33 -31 -24 -17 -10 -6 -7 -6 -5 -5 -4 -3 -3 -2 -2 -2 -1 0 0 -0 -1 1 1 2 2 4 6 6 7 7 8 9 9 9
-32 -32 -34 -35 -34 -34 -34 -34 -34 -34 -33 -33 -27 -22 -9 -6 -6 -5 -5 -4 -3 -3 -3 -2 -2 -2 -2 -3 -2 -2 -2 -2 1 -0 2 3 4 4 4 6 7 7 8
-31 -30 -32 -34 -34 -34 -34 -34 -34 -34 -33 -33 -31 -26 -27 -11 -6 -5 -5 -5 -4 -4 -3 -3 -4 -4 -4 -4 -4 -5 -4 -6 -3 -0 -0 3 3 3 1 4 4 4 5
-30 -29 -32 -34 -34 -34 -34 -34 -34 -34 -34 -33 -32 -30 -29 -29 -18 -5 -5 -5 -5 -5 -5 -5 -5 -5 -5 -5 -5 -6 -4 -5 -6 -5 -6 -3 1 -2 -1 1 1 2 3
-28 -28 -31 -30 -32 -34 -34 -32 -34 -34 -34 -33 -32 -31 -31 -31 -31 -27 -9 -5 -5 -5 -6 -6 -6 -6 -6 -6 -6 -7 -7 -6 -4 -5 -6 -4 -3 -4 -7 -6 -3 -4 -1
-30 -31 -33 -33 -33 -33 -33 -32 -32 -34 -35 -35 -34 -33 -33 -33 -32 -32 -32 -30 -17 -7 -6 -6 -7 -8 -7 -7 -7 -7 -7 -7 -7 -7 -6 -7 -7 -11 -15 -24 -30 -29 -26
-31 -32 -33 -32 -32 -32 -32 -31 -31 -33 -34 -35 -36 -35 -35 -35 -35 -35 -36 -35 -35 -33 -32 -22 -20 -14 -9 -9 -8 -8 -7 -7 -7 -8 -9 -9 -10 -9 -26 -34 -35 -37 -38
-31 -31 -30 -29 -30 -31 -31 -30 -31 -32 -33 -34 -35 -36 -36 -37 -36 -36 -37 -37 -37 -37 -36 -35 -34 -34 -33 -26 -19 -16 -13 -19 -21 -26 -15 -12 -11 -12 -14 -31 -39 -39 -39
-31 -29 -27 -26 -25 -28 -29 -29 -29 -30 -31 -31 -35 -37 -37 -37 -38 -37 -37 -37 -37 -36 -35 -34 -34 -35 -37 -38 -36 -21 -15 -12 -14 -34 -35 -14 -15 -12 -17 -29 -38 -39 -39
-27 -26 -25 -24 -24 -24 -28 -28 -29 -23 -26 -21 -26 -33 -37 -37 -38 -37 -37 -37 -37 -37 -37 -37 -37 -37 -38 -38 -39 -39 -32 -25 -18 -19 -35 -15 -15 -14 -9 -16 -33 -37 -35

GFSMA_850_dewp_165.txt.gz
Dewpoint
-17 -15 -14 -11 -16 -21 -17 -15 -17 -18 -16 -9 -6 -5 -6 -6 -5 -3 -3 -7 -13 -14 -17 -18 -12 -1 9 12 12 11 10 10 11 12 11 10 10 9 9 8 6 5 4
-16 -15 -15 -19 -22 -23 -16 -16 -21 -18 -9 -4 -3 -2 -3 -4 -3 -3 -2 -2 -3 -8 -12 -13 -17 -16 -5 5 12 12 11 11 10 11 12 11 10 10 9 9 8 6 4
-15 -15 -19 -23 -26 -25 -21 -23 -18 -6 -3 -2 -0 0 0 0 0 0 0 1 1 1 -1 -2 -7 -13 -16 -11 2 10 13 12 10 10 11 11 11 10 10 10 9 8 6
-14 -18 -25 -26 -29 -28 -26 -17 -7 -5 -2 -1 -0 -1 -2 -1 0 1 1 1 1 2 2 2 -0 -2 -7 -14 -14 -1 8 12 12 10 10 11 11 11 11 10 10 9 8
-15 -23 -27 -29 -30 -27 -17 -10 -8 -6 -5 -4 -4 -5 -2 -1 -1 0 1 2 2 2 4 3 3 4 2 -6 -13 -14 -3 6 11 12 10 10 11 11 11 11 10 10 9
-19 -28 -28 -29 -29 -19 -11 -11 -13 -7 -2 -2 -7 -2 -4 -1 0 1 2 -1 -1 2 2 3 3 3 5 2 -3 -11 -13 -1 7 12 12 10 11 11 11 11 11 11 10
-24 -29 -29 -29 -28 -16 -11 -12 -13 -5 -3 -3 -2 -5 -2 -1 -0 2 1 -0 0 1 1 3 3 3 2 4 1 -3 -6 -10 2 9 13 12 11 11 11 11 11 11 11
-27 -29 -30 -29 -25 -13 -6 -10 -8 -12 -4 -2 -2 -3 -2 -2 0 -1 -0 0 -0 0 -1 2 3 4 5 5 2 2 3 -0 -1 4 10 12 10 8 11 11 11 10 10
-28 -30 -30 -30 -26 -13 -10 -9 -9 -11 -4 -4 -4 -3 -3 -3 -4 -2 -2 -1 -1 -0 -1 1 2 2 5 6 3 2 7 8 8 5 10 12 11 10 10 12 10 10 9
-28 -30 -31 -30 -26 -16 -16 -12 -16 -13 -10 -6 -5 -4 -5 -5 -4 -4 -3 -3 -2 -2 -2 1 1 1 3 5 6 4 5 7 8 8 9 9 11 11 11 11 10 11 10
-28 -30 -32 -30 -25 -13 -19 -19 -21 -9 -6 -8 -5 -5 -6 -5 -5 -4 -4 -4 -3 -3 -2 0 1 1 1 3 5 6 5 4 5 8 9 8 10 10 11 11 11 11 8
-21 -27 -31 -28 -20 -26 -24 -22 -18 -6 -5 -11 -7 -6 -6 -6 -6 -6 -5 -5 -4 -3 -2 -0 0 1 1 1 3 5 5 7 6 7 9 9 9 10 10 10 10 10 10
-9 -24 -31 -27 -25 -30 -30 -26 -10 -8 -6 -13 -10 -6 -7 -6 -6 -6 -6 -5 -5 -4 -1 -0 -0 0 0 1 1 2 5 7 6 7 7 8 9 8 8 10 10 9 9
-19 -31 -31 -31 -32 -32 -31 -27 -8 -11 -7 -6 -8 -6 -6 -6 -6 -6 -6 -5 -5 -3 -1 -2 -1 -1 -0 -0 0 1 2 5 6 7 6 6 8 8 8 9 9 9 10
-29 -32 -32 -31 -32 -32 -31 -27 -12 -24 -12 -6 -7 -10 -5 -6 -6 -6 -6 -5 -5 -4 -3 -2 -1 -2 -2 -1 -1 -1 1 -0 1 6 7 6 6 8 9 9 10 9 9
-32 -32 -32 -33 -33 -32 -32 -31 -23 -29 -19 -9 -8 -15 -6 -7 -7 -6 -6 -5 -5 -5 -4 -3 -2 -2 -3 -2 -3 -1 -0 -0 -3 3 4 7 7 8 8 9 9 9 7
-31 -31 -32 -33 -32 -32 -32 -33 -32 -31 -27 -19 -17 -19 -12 -6 -7 -7 -6 -5 -5 -5 -5 -4 -3 -3 -3 -3 -3 -4 -3 -2 -2 -1 -1 2 4 4 6 6 7 8 9
-31 -31 -31 -32 -32 -32 -32 -33 -33 -32 -31 -29 -25 -28 -24 -10 -6 -6 -6 -5 -5 -5 -4 -4 -4 -4 -4 -5 -4 -4 -5 -4 -3 -2 -1 1 2 2 2 3 3 3 5
-30 -30 -31 -32 -32 -32 -32 -32 -32 -32 -31 -32 -29 -33 -30 -28 -11 -5 -6 -6 -6 -6 -5 -5 -6 -6 -6 -5 -6 -5 -5 -6 -7 -5 -3 -3 -2 -0 1 1 -1 1 1
-27 -27 -29 -32 -32 -32 -32 -31 -31 -28 -28 -30 -29 -33 -33 -32 -32 -19 -6 -6 -6 -6 -6 -6 -6 -6 -6 -6 -6 -6 -6 -6 -5 -5 -5 -5 -6 -2 -2 -1 -3 1 -1
-21 -19 -20 -21 -22 -30 -32 -30 -31 -30 -28 -25 -25 -28 -34 -34 -33 -34 -31 -10 -6 -7 -7 -7 -7 -7 -7 -7 -7 -7 -6 -7 -7 -6 -7 -9 -14 -6 -12 -16 -13 -7 -10
-28 -28 -26 -26 -26 -31 -34 -32 -29 -32 -32 -29 -30 -31 -34 -32 -29 -35 -36 -34 -30 -14 -10 -8 -8 -9 -8 -8 -8 -8 -7 -7 -7 -7 -9 -7 -7 -18 -21 -36 -32 -16 -16
-31 -30 -31 -31 -30 -31 -32 -32 -32 -31 -33 -34 -34 -35 -36 -36 -35 -33 -36 -36 -37 -36 -35 -31 -30 -23 -17 -13 -10 -9 -9 -8 -8 -8 -8 -9 -10 -10 -17 -36 -37 -39 -38
-32 -31 -30 -29 -29 -30 -31 -31 -31 -29 -30 -32 -34 -35 -36 -37 -37 -37 -37 -37 -37 -38 -38 -38 -37 -37 -36 -25 -19 -12 -10 -11 -23 -20 -12 -10 -10 -11 -19 -22 -39 -39 -40
-31 -29 -28 -25 -24 -29 -31 -30 -26 -22 -26 -28 -34 -36 -36 -37 -37 -37 -36 -37 -37 -35 -35 -37 -38 -38 -38 -38 -33 -20 -11 -9 -13 -28 -20 -11 -11 -11 -12 -22 -26 -28 -37
-29 -27 -25 -23 -24 -26 -30 -30 -25 -10 -12 -15 -21 -34 -37 -37 -38 -37 -37 -36 -34 -33 -29 -25 -28 -31 -37 -38 -39 -38 -28 -20 -14 -22 -22 -14 -11 -11 -9 -11 -16 -19 -19

GFSMA_850_dewp_171.txt.gz
Dewpoint
-19 -17 -17 -18 -20 -22 -23 -24 -25 -24 -22 -23 -25 -28 -27 -20 -14 -10 -8 -7 -5 -4 -3 1 5 5 1 -0 -6 -11 -3 6 12 11 11 11 12 11 11 11 10 8 7
-18 -16 -17 -19 -23 -23 -24 -25 -25 -24 -26 -28 -28 -26 -14 -10 -7 -5 -4 -2 -1 1 2 1 1 0 1 1 0 -1 -11 -11 1 11 12 11 11 11 11 11 11 10 8
-17 -16 -18 -22 -24 -24 -24 -25 -26 -26 -28 -30 -29 -17 -18 -15 -6 -1 1 1 2 2 2 2 1 1 -0 -1 1 2 5 5 -6 -6 8 12 12 12 11 11 11 10 10
-16 -17 -20 -24 -25 -24 -25 -26 -27 -28 -29 -30 -29 -20 -23 -12 -3 -2 1 2 2 2 1 -0 -1 -0 -1 -3 -1 -0 4 6 6 -1 -7 3 11 12 12 11 11 11 10
-16 -17 -21 -24 -25 -26 -27 -27 -28 -29 -30 -30 -29 -29 -24 -13 -7 -1 -0 1 2 1 0 0 0 -1 -1 0 -0 1 3 4 5 7 5 -9 -2 10 12 12 11 11 11
-16 -18 -20 -23 -25 -26 -27 -28 -29 -29 -30 -30 -31 -29 -15 -8 -3 -1 -1 0 0 0 -0 -0 -1 -2 -1 0 0 1 2 3 4 4 5 6 -8 -5 7 12 12 11 11
-17 -19 -20 -22 -23 -25 -27 -28 -29 -29 -30 -30 -30 -28 -14 -7 -1 -4 -3 -2 -1 -1 -2 -3 -3 0 1 1 -0 1 1 2 2 4 4 4 5 -8 -9 4 11 12 11
-17 -19 -19 -20 -23 -27 -28 -28 -29 -29 -29 -29 -28 -18 -15 -9 -7 -5 -5 -4 -4 -4 -4 -3 -0 -0 0 1 1 1 1 2 2 3 4 2 3 5 -7 -9 6 9 11
-18 -19 -19 -22 -25 -28 -28 -28 -29 -29 -27 -27 -28 -15 -8 -8 -9 -9 -6 -5 -5 -5 -2 -1 -1 -1 -0 -0 0 0 0 1 2 3 3 2 4 3 3 -1 -2 3 7
-19 -19 -20 -23 -25 -28 -28 -28 -28 -28 -26 -27 -27 -21 -11 -6 -5 -5 -5 -5 -5 -3 -1 -1 -1 -1 -1 -1 -1 -0 -0 1 2 4 4 2 6 6 6 5 4 4 6
-20 -20 -20 -23 -26 -28 -28 -28 -27 -27 -26 -25 -28 -24 -17 -9 -5 -5 -5 -5 -6 -3 -1 -2 -2 -2 -1 -1 -1 -1 -0 -0 2 3 5 4 2 3 6 7 3 2 4
-17 -18 -20 -23 -26 -28 -28 -28 -26 -26 -27 -24 -25 -26 -17 -8 -5 -5 -5 -5 -5 -4 -2 -2 -3 -3 -3 -2 -2 -2 -2 -1 0 2 4 4 5 3 3 7 8 4 6
-14 -16 -21 -23 -28 -29 -28 -27 -24 -25 -26 -25 -24 -26 -18 -7 -5 -5 -5 -5 -5 -4 -4 -3 -3 -4 -4 -3 -3 -3 -2 -2 -1 0 2 4 5 6 4 7 8 6 7
-12 -17 -22 -25 -28 -29 -28 -26 -24 -26 -26 -25 -24 -26 -19 -8 -5 -5 -6 -5 -5 -5 -4 -3 -4 -5 -4 -4 -4 -4 -3 -3 -3 -1 -0 2 5 6 6 8 9 10 9
-13 -19 -23 -26 -29 -28 -28 -27 -25 -28 -25 -25 -26 -26 -22 -10 -5 -5 -5 -5 -5 -5 -5 -4 -5 -5 -5 -4 -4 -4 -4 -4 -4 -3 -2 -0 3 5 6 7 8 8 8
-15 -19 -23 -27 -29 -29 -28 -27 -27 -28 -25 -25 -27 -28 -28 -16 -9 -5 -4 -4 -5 -5 -5 -5 -5 -5 -5 -5 -5 -5 -4 -4 -4 -4 -3 -1 0 4 5 6 7 8 8
-14 -18 -24 -28 -29 -28 -28 -28 -28 -28 -27 -27 -29 -31 -32 -27 -16 -9 -5 -5 -6 -6 -6 -5 -6 -6 -6 -6 -6 -5 -5 -5 -4 -5 -5 -4 -2 1 3 4 6 7 7
-10 -19 -26 -28 -29 -28 -28 -29 -28 -28 -28 -28 -31 -33 -33 -34 -28 -17 -9 -6 -6 -6 -6 -6 -6 -6 -7 -7 -7 -6 -6 -6 -6 -7 -7 -5 -3 -2 -0 1 0 3 6
-13 -22 -27 -28 -29 -28 -28 -28 -27 -27 -28 -29 -31 -32 -33 -34 -34 -29 -18 -11 -6 -6 -6 -7 -7 -7 -7 -7 -7 -7 -7 -7 -7 -7 -12 -12 -5 -3 -3 -2 -1 -1 -2
-15 -24 -27 -29 -29 -28 -28 -26 -24 -24 -26 -28 -29 -31 -33 -34 -35 -35 -31 -26 -14 -8 -6 -6 -7 -7 -7 -7 -7 -7 -8 -8 -8 -8 -8 -12 -20 -15 -7 -5 -4 -3 -3
-17 -24 -27 -29 -29 -28 -27 -25 -24 -24 -25 -26 -28 -30 -31 -33 -35 -36 -36 -36 -33 -27 -17 -12 -9 -8 -7 -8 -9 -10 -7 -8 -9 -9 -10 -18 -15 -15 -17 -25 -9 -6 -6
-18 -21 -25 -26 -22 -26 -28 -28 -26 -26 -26 -27 -28 -30 -31 -32 -34 -36 -37 -38 -38 -37 -37 -36 -31 -25 -18 -14 -14 -14 -16 -12 -8 -10 -10 -14 -22 -24 -14 -11 -13 -14 -9
-16 -20 -24 -22 -19 -27 -31 -32 -30 -27 -29 -30 -31 -31 -32 -33 -32 -33 -35 -36 -37 -38 -38 -38 -38 -38 -32 -23 -15 -12 -10 -22 -13 -12 -11 -11 -11 -14 -18 -12 -12 -11 -11
-17 -22 -22 -18 -22 -28 -32 -32 -31 -28 -30 -31 -32 -33 -34 -35 -35 -33 -33 -35 -36 -36 -37 -37 -38 -38 -38 -34 -22 -13 -10 -10 -19 -14 -13 -11 -11 -11 -12 -17 -14 -12 -12
-19 -24 -21 -24 -27 -29 -31 -32 -30 -27 -28 -30 -32 -33 -34 -35 -35 -35 -35 -35 -34 -33 -32 -32 -32 -36 -38 -39 -38 -17 -12 -10 -20 -22 -15 -11 -11 -11 -12 -13 -17 -17 -13
-22 -26 -27 -27 -25 -27 -31 -31 -28 -22 -25 -27 -30 -34 -36 -35 -34 -34 -35 -34 -30 -32 -32 -31 -34 -31 -34 -36 -37 -38 -38 -38 -37 -25 -20 -11 -11 -11 -12 -13 -15 -17 -17

GFSMA_850_dewp_174.txt.gz
Dewpoint
-20 -20 -19 -19 -21 -22 -22 -23 -24 -25 -27 -28 -29 -30 -28 -25 -22 -17 -12 -9 -6 -6 -5 -3 -1 -2 -3 -5 -5 -4 -4 -8 -8 1 6 11 12 12 12 12 11 11 10
-20 -19 -18 -19 -21 -22 -22 -23 -25 -26 -28 -29 -30 -27 -24 -24 -19 -15 -14 -9 -6 -5 -4 -2 -1 -1 -2 -2 -3 -3 -5 -5 -4 -3 -6 3 9 11 12 12 12 11 11
-20 -17 -17 -20 -22 -22 -23 -24 -25 -26 -28 -29 -28 -25 -24 -18 -10 -9 -7 -6 -2 -1 -0 0 0 -1 -2 -2 -3 -1 -5 -4 3 4 4 2 -3 6 11 12 12 12 11
-18 -16 -18 -21 -23 -23 -24 -24 -26 -27 -29 -30 -29 -30 -26 -14 -7 -3 -1 -0 1 1 1 1 0 -1 -1 -2 -3 -4 -3 2 3 5 4 4 2 -6 5 11 12 12 12
-17 -16 -19 -22 -23 -24 -24 -25 -26 -28 -29 -30 -31 -30 -19 -9 -5 -3 -2 -1 -1 -1 -2 -2 -2 -2 -2 -2 -1 -1 -1 1 2 2 3 4 2 -2 -7 1 9 12 12
-16 -17 -20 -22 -22 -23 -24 -25 -26 -28 -29 -31 -31 -27 -14 -7 -5 -9 -5 -4 -4 -3 -3 -4 -4 -3 -0 -0 -0 0 0 -0 -0 0 2 2 2 1 3 -2 -4 9 11
-16 -18 -20 -21 -22 -23 -25 -26 -27 -28 -30 -30 -30 -25 -15 -8 -7 -9 -8 -7 -5 -5 -4 -3 -1 -0 -1 -1 -0 0 -0 0 0 2 3 4 2 3 3 4 -1 -7 5
-17 -19 -20 -20 -21 -24 -25 -27 -28 -29 -29 -29 -29 -28 -18 -9 -6 -10 -7 -5 -5 -4 -2 -1 -1 -1 -1 -2 -1 -1 -1 -0 0 1 2 4 4 3 3 2 4 -0 -8
-18 -19 -20 -21 -22 -24 -25 -27 -28 -28 -28 -29 -29 -29 -23 -22 -19 -13 -7 -6 -6 -3 -2 -2 -2 -2 -2 -2 -2 -1 -1 -0 0 1 1 3 5 4 2 3 2 4 -5
-19 -20 -21 -22 -23 -24 -25 -27 -27 -27 -27 -28 -28 -28 -25 -19 -16 -14 -7 -6 -5 -3 -2 -2 -2 -3 -4 -3 -2 -2 -2 -1 -0 -0 1 2 4 5 4 6 4 4 4
-20 -21 -21 -21 -23 -25 -26 -27 -27 -26 -27 -27 -28 -28 -24 -18 -11 -6 -4 -5 -5 -2 -2 -2 -2 -3 -4 -4 -3 -3 -3 -3 -2 -1 0 2 3 4 3 2 4 6 5
-21 -21 -21 -21 -22 -25 -26 -27 -26 -26 -27 -27 -28 -28 -26 -16 -9 -5 -5 -5 -5 -4 -4 -3 -3 -4 -5 -4 -4 -4 -4 -4 -3 -2 -1 1 3 4 5 4 1 4 6
-19 -19 -20 -20 -23 -25 -26 -26 -26 -26 -27 -27 -28 -28 -26 -19 -9 -5 -5 -5 -5 -4 -4 -3 -4 -5 -5 -5 -5 -5 -4 -4 -4 -4 -2 -0 2 3 5 6 3 5 5
-15 -17 -20 -21 -25 -25 -26 -26 -25 -26 -27 -27 -28 -28 -28 -20 -10 -5 -5 -5 -5 -5 -4 -4 -5 -5 -5 -5 -5 -5 -5 -4 -4 -4 -3 -2 -0 1 4 6 6 6 6
-12 -17 -20 -22 -25 -26 -26 -25 -25 -27 -27 -27 -28 -29 -29 -21 -12 -6 -5 -5 -5 -5 -5 -4 -5 -6 -6 -6 -6 -5 -5 -5 -4 -4 -4 -4 -2 -1 2 5 6 7 7
-12 -17 -19 -23 -25 -26 -27 -26 -26 -27 -27 -27 -28 -29 -30 -23 -15 -10 -7 -5 -6 -5 -6 -5 -5 -6 -6 -6 -6 -6 -6 -6 -5 -5 -4 -3 -3 -2 -0 2 5 7 7
-12 -17 -21 -22 -23 -27 -27 -26 -27 -27 -27 -28 -29 -30 -31 -27 -18 -15 -10 -7 -6 -5 -6 -5 -6 -6 -7 -7 -7 -7 -7 -7 -7 -11 -8 -5 -3 -2 -0 0 0 3 5
-14 -17 -18 -19 -25 -27 -27 -27 -27 -27 -27 -28 -30 -31 -32 -31 -25 -24 -20 -15 -8 -6 -6 -6 -7 -7 -7 -7 -7 -7 -7 -7 -7 -8 -14 -12 -5 -3 -2 -0 -1 0 1
-11 -14 -15 -23 -27 -27 -27 -27 -27 -27 -27 -28 -30 -31 -32 -32 -31 -31 -30 -25 -13 -9 -7 -6 -7 -7 -7 -7 -7 -7 -8 -8 -8 -10 -12 -12 -16 -7 -5 -4 -3 -2 -1
-8 -13 -21 -24 -27 -27 -27 -27 -26 -26 -27 -27 -29 -30 -34 -34 -34 -33 -33 -33 -28 -20 -13 -10 -7 -7 -7 -8 -10 -8 -8 -8 -10 -14 -20 -22 -14 -16 -15 -7 -6 -6 -4
-12 -17 -21 -24 -27 -27 -27 -26 -26 -26 -25 -26 -28 -29 -31 -33 -33 -32 -33 -35 -35 -36 -35 -30 -23 -14 -15 -18 -17 -18 -14 -9 -10 -14 -16 -19 -26 -23 -17 -25 -12 -9 -9
-17 -20 -21 -25 -27 -27 -27 -27 -26 -26 -25 -24 -26 -29 -29 -30 -32 -33 -31 -32 -35 -35 -37 -38 -36 -35 -30 -23 -18 -15 -20 -18 -12 -14 -14 -14 -15 -23 -17 -11 -11 -10 -9
-14 -13 -19 -23 -24 -24 -26 -28 -29 -26 -26 -25 -25 -30 -30 -30 -30 -30 -31 -32 -33 -36 -36 -35 -37 -37 -37 -31 -20 -16 -13 -20 -16 -13 -13 -13 -12 -14 -18 -15 -11 -10 -10
-10 -13 -18 -20 -20 -23 -27 -30 -30 -28 -27 -28 -31 -33 -33 -33 -32 -29 -30 -32 -34 -33 -34 -35 -36 -37 -37 -38 -31 -20 -15 -12 -20 -16 -13 -12 -12 -12 -14 -18 -15 -13 -11
-11 -14 -17 -19 -21 -23 -28 -31 -31 -29 -27 -29 -32 -34 -34 -34 -33 -33 -31 -33 -32 -33 -32 -34 -35 -35 -37 -37 -37 -31 -30 -21 -23 -20 -14 -13 -13 -12 -13 -16 -17 -12 -12
-11 -14 -17 -18 -20 -25 -28 -30 -31 -26 -26 -30 -32 -34 -34 -34 -33 -32 -31 -32 -31 -31 -33 -34 -35 -34 -35 -34 -34 -33 -35 -38 -34 -24 -18 -13 -11 -11 -12 -15 -17 -18 -13